Regional Weather Roundup
Issued by NWS Newport/Morehead, NC

Current Version | Previous Version | Text Only | Print | Product List | Glossary Off
Versions: 1 2 3 4 5 6 7 8 9 10 11 12 13 14 15 16 17 18 19 20 21 22 23 24 25 26 27 28 29 30 31 32 33 34 35 36 37 38 39 40 41 42 43 44 45 46 47 48 49 50
000 ASUS42 KMHX 212122 RWRMHX WEATHER ROUNDUP FOR EASTERN NORTH CAROLINA NATIONAL WEATHER SERVICE NEWPORT/MOREHEAD CITY NC 500 PM EDT SUN SEP 21 2014 NOTE: "FAIR" INDICATES FEW OR NO CLOUDS BELOW 12,000 FEET WITH NO SIGNIFICANT WEATHER AND/OR OBSTRUCTIONS TO VISIBILITY NCZ015>017-031-032-045>047-102-103-212200- NORTH COAST CITY SKY/WX TMP DP RH WIND PRES REMARKS EDENTON MOSUNNY 80 66 61 W7 29.76S ELIZABETH CITY SUNNY 81 62 52 W10 29.74S KITTY HAWK PTCLDY 78 68 72 W12 29.74R MANTEO MOSUNNY 78 67 69 W8 29.75S $$ NCZ045>047-081-094-103-104-212200- CENTRAL COAST CITY SKY/WX TMP DP RH WIND PRES REMARKS FRISCO MOSUNNY 77 70 79 W6 29.77R SWANQUARTER N/A 81 N/A N/A W8G15 29.74S $$ NCZ095-097-098-100-101-212200- SOUTHERN COAST CITY SKY/WX TMP DP RH WIND PRES REMARKS BEAUFORT SUNNY 82 63 52 W10 29.81R CEDAR ISLAND N/A 81 N/A N/A SW3G14 29.82S JACKSONVILLE MOSUNNY 84 61 45 W10 29.81S NEWPORT NOT AVBL PINEY ISLAND CLEAR 82 61 48 W16 29.80R WILMINGTON SUNNY 85 62 46 W10 29.83S $$ NCZ011>013-027>030-043-044-078>080-089-090>093-098-212200- COASTAL PLAIN CITY SKY/WX TMP DP RH WIND PRES REMARKS AHOSKIE SUNNY 81 65 58 CALM 29.76S CLINTON MOSUNNY 85 65 50 SW9 29.82S ELIZABETHTOWN SUNNY 85 62 45 W7 29.84R GOLDSBORO SUNNY 85 67 56 W3 29.78F GREENVILLE MOSUNNY 84 64 51 W7 29.81S HAVELOCK SUNNY 82 63 52 W10 29.82R KENANSVILLE SUNNY 84 61 44 W8 29.82S KINSTON MOSUNNY 84 63 48 W7 29.81S NEW BERN MOSUNNY 84 64 50 VRB5 29.81R RICHLANDS MOSUNNY 84 63 48 SW8 29.82S ROANOKE RAPIDS NOT AVBL ROCKY MOUNT SUNNY 85 63 47 W7 29.78F WASHINGTON MOSUNNY 82 64 55 W5 29.78S WHITEVILLE SUNNY 84 64 49 SW3 29.84S $$ AMZ130-135-150-152-154-156-158-170-250-252-270-ANZ085-086-088-633-658-670-212200- MARINE OBSERVATIONS STATION/POSITION TIME TEMP WIND PRES WAVE SWELL AIR SEA DIR/SP/G HT/PER HT/PER (UTC) (F) (DEG/KT/KT) (MB) (FT/S) (FT/S) CHESAPEAKE LIGHT 2100 74 290/ 9/ 10 1006.9 BUOY 44014 2100 74 77 300/ 17/ 19 1005.0 7/ 9 5/ 9 DUCK 2100 78 75 300/ 5/ 7 1006.3 2E DUCK 2100 N/A 5/ 8 OREGON INLET 2100 78 74 280/ 7/ 11 1007.2 BUOY 44095 2100 74 N/A 7/ 8 2/11 20E OREGON INLET NOT AVBL HATTERAS CG NOT AVBL DIAMOND BUOY 2100 77 280/ 17/ 21 1008.0 6/ 9 3/ 9 CAPE LOOKOUT 2100 80 280/ 12/ 15 1009.4 BEAUFORT LAB 2100 81 74 300/ 7/ 11 1009.0 30 SE NEW RIVER 2100 80 83 280/ 12/ 14 1010.3 4/ 9 3/ 9 5 SE WRIGHTSVILL 2100 79 79 290/ 10/ 12 N/A BUOY 41002 2034 80 81 280/ 17/ 19 1012.2 11/ 8 BUOY 41004 2100 80 82 250/ 10/ 14 1012.2 3/ 7 3/ 7 $$

USA.gov is the U.S. government's official web portal to all federal, state and local government web resources and services.